Total_Precipitation_Accumulation
0.76 0.72 0.71 0.72 0.72 0.74 0.68 0.61 0.50 0.38 0.32 0.29 0.26 0.28 0.31 0.31 0.35 0.40 0.47 0.44 0.38 0.49 0.67 0.74 0.72 0.72 0.69 0.63 0.58 0.55 0.53 0.52 0.48 0.42 0.34 0.31 0.29 0.27 0.27 0.26 0.26 0.27 0.28
1.06 1.00 0.99 1.00 0.91 0.93 0.93 0.85 0.68 0.59 0.46 0.43 0.43 0.44 0.44 0.40 0.42 0.46 0.53 0.51 0.46 0.50 0.67 0.81 0.88 0.88 0.87 0.84 0.78 0.67 0.64 0.62 0.60 0.55 0.49 0.42 0.36 0.33 0.33 0.30 0.27 0.25 0.25
1.35 1.30 1.32 1.33 1.16 1.11 1.17 1.16 0.96 0.83 0.72 0.63 0.66 0.62 0.56 0.58 0.61 0.62 0.67 0.67 0.67 0.66 0.74 0.76 0.79 0.83 0.84 0.86 0.88 0.83 0.79 0.72 0.67 0.65 0.62 0.55 0.47 0.41 0.38 0.34 0.33 0.31 0.28
1.57 1.62 1.59 1.50 1.42 1.38 1.46 1.54 1.33 1.18 1.10 0.99 0.95 0.83 0.75 0.72 0.67 0.72 0.73 0.72 0.81 0.83 0.79 0.70 0.69 0.72 0.76 0.82 0.86 0.86 0.84 0.79 0.73 0.69 0.66 0.65 0.61 0.51 0.44 0.40 0.39 0.38 0.35
1.86 1.93 1.93 1.90 1.82 1.77 1.78 1.71 1.67 1.48 1.49 1.39 1.16 1.02 0.92 0.85 0.83 0.80 0.77 0.76 0.75 0.79 0.78 0.69 0.63 0.60 0.60 0.64 0.69 0.78 0.84 0.83 0.77 0.72 0.71 0.73 0.71 0.64 0.55 0.50 0.47 0.43 0.41
2.33 2.33 2.27 2.31 2.31 2.31 2.14 2.03 1.92 1.70 1.55 1.45 1.25 1.14 1.06 0.99 0.88 0.80 0.71 0.66 0.63 0.59 0.59 0.62 0.62 0.53 0.49 0.51 0.56 0.63 0.71 0.80 0.86 0.83 0.78 0.81 0.80 0.73 0.64 0.58 0.55 0.52 0.49
2.97 2.89 2.83 2.73 2.57 2.48 2.31 2.11 1.94 1.77 1.60 1.39 1.34 1.18 0.97 0.84 0.75 0.66 0.59 0.55 0.50 0.46 0.42 0.44 0.50 0.51 0.47 0.43 0.44 0.50 0.61 0.74 0.82 0.81 0.77 0.80 0.81 0.77 0.71 0.66 0.62 0.57 0.57
3.69 3.51 3.31 3.03 2.69 2.51 2.39 2.16 1.91 1.74 1.53 1.35 1.30 1.25 1.02 0.81 0.64 0.53 0.47 0.43 0.40 0.38 0.34 0.30 0.34 0.38 0.36 0.31 0.31 0.39 0.45 0.47 0.49 0.57 0.68 0.75 0.75 0.74 0.74 0.73 0.72 0.71 0.69
3.84 3.54 3.18 2.91 2.65 2.46 2.30 2.16 1.94 1.76 1.53 1.29 1.15 1.16 1.10 0.96 0.72 0.57 0.44 0.35 0.32 0.29 0.25 0.21 0.21 0.21 0.23 0.23 0.24 0.29 0.37 0.41 0.39 0.41 0.53 0.65 0.67 0.67 0.70 0.73 0.76 0.79 0.83
3.51 3.06 2.77 2.69 2.45 2.24 2.08 1.87 1.65 1.49 1.35 1.20 1.09 1.00 0.90 0.80 0.71 0.62 0.51 0.41 0.34 0.30 0.27 0.25 0.22 0.19 0.19 0.19 0.20 0.21 0.24 0.27 0.28 0.29 0.34 0.41 0.46 0.49 0.53 0.59 0.68 0.76 0.83
2.95 2.68 2.43 2.38 2.25 1.97 1.70 1.43 1.22 1.11 1.02 0.97 0.92 0.86 0.79 0.67 0.57 0.52 0.50 0.42 0.37 0.32 0.26 0.24 0.24 0.21 0.19 0.19 0.19 0.21 0.22 0.21 0.23 0.26 0.28 0.31 0.35 0.40 0.44 0.50 0.59 0.70 0.79
2.41 2.17 1.90 1.72 1.59 1.39 1.22 1.06 0.91 0.85 0.80 0.77 0.72 0.69 0.68 0.64 0.57 0.50 0.47 0.42 0.39 0.37 0.30 0.24 0.19 0.18 0.16 0.15 0.15 0.20 0.20 0.21 0.22 0.22 0.21 0.20 0.21 0.23 0.29 0.38 0.47 0.57 0.69
1.77 1.54 1.33 1.19 1.07 0.95 0.86 0.81 0.78 0.73 0.65 0.58 0.53 0.49 0.48 0.43 0.41 0.42 0.45 0.44 0.40 0.36 0.30 0.24 0.17 0.12 0.11 0.12 0.15 0.19 0.22 0.19 0.18 0.16 0.15 0.13 0.12 0.12 0.13 0.17 0.25 0.36 0.49
1.21 1.06 0.93 0.84 0.77 0.73 0.67 0.63 0.58 0.52 0.46 0.42 0.39 0.36 0.34 0.32 0.32 0.34 0.38 0.42 0.44 0.38 0.27 0.20 0.15 0.12 0.11 0.14 0.22 0.25 0.26 0.17 0.13 0.11 0.09 0.07 0.07 0.07 0.08 0.10 0.13 0.17 0.24
0.79 0.68 0.60 0.56 0.54 0.50 0.46 0.40 0.34 0.33 0.35 0.36 0.34 0.33 0.31 0.29 0.29 0.29 0.30 0.34 0.40 0.41 0.32 0.20 0.17 0.15 0.16 0.23 0.36 0.37 0.33 0.23 0.16 0.11 0.08 0.06 0.05 0.06 0.07 0.08 0.08 0.10 0.13
0.49 0.43 0.38 0.36 0.35 0.35 0.34 0.32 0.30 0.28 0.28 0.29 0.28 0.26 0.24 0.22 0.22 0.21 0.23 0.25 0.30 0.39 0.35 0.20 0.13 0.12 0.16 0.21 0.35 0.38 0.40 0.35 0.25 0.16 0.11 0.08 0.07 0.07 0.08 0.10 0.11 0.12 0.15
0.36 0.34 0.32 0.31 0.30 0.31 0.32 0.33 0.35 0.33 0.30 0.27 0.23 0.21 0.19 0.16 0.17 0.17 0.18 0.20 0.23 0.30 0.34 0.22 0.14 0.13 0.17 0.24 0.31 0.34 0.34 0.32 0.28 0.26 0.18 0.15 0.13 0.11 0.11 0.12 0.14 0.17 0.21
0.33 0.33 0.33 0.31 0.29 0.27 0.28 0.29 0.29 0.28 0.27 0.24 0.20 0.17 0.16 0.15 0.15 0.15 0.16 0.18 0.21 0.28 0.36 0.34 0.21 0.14 0.16 0.21 0.27 0.29 0.25 0.24 0.27 0.29 0.22 0.16 0.13 0.13 0.18 0.15 0.13 0.16 0.22
0.29 0.28 0.27 0.27 0.27 0.26 0.25 0.23 0.22 0.21 0.19 0.18 0.18 0.18 0.18 0.18 0.17 0.17 0.19 0.21 0.24 0.28 0.37 0.40 0.27 0.20 0.19 0.26 0.36 0.35 0.30 0.38 0.31 0.26 0.22 0.18 0.16 0.17 0.40 0.46 0.22 0.18 0.21
0.25 0.22 0.20 0.19 0.19 0.18 0.16 0.14 0.11 0.11 0.11 0.10 0.11 0.14 0.16 0.17 0.19 0.23 0.24 0.27 0.31 0.36 0.37 0.39 0.32 0.25 0.26 0.31 0.43 0.50 0.46 0.43 0.39 0.24 0.27 0.24 0.23 0.28 0.65 1.20 0.67 0.35 0.29
0.20 0.18 0.17 0.15 0.13 0.11 0.08 0.06 0.05 0.05 0.07 0.08 0.09 0.12 0.13 0.14 0.19 0.21 0.23 0.27 0.36 0.42 0.44 0.47 0.42 0.36 0.34 0.43 0.51 0.53 0.50 0.48 0.41 0.33 0.39 0.35 0.50 0.84 1.36 2.00 1.54 0.88 0.63
0.19 0.15 0.12 0.10 0.09 0.06 0.05 0.04 0.03 0.04 0.06 0.09 0.13 0.13 0.10 0.10 0.10 0.11 0.15 0.23 0.32 0.42 0.50 0.56 0.54 0.52 0.46 0.51 0.60 0.61 0.61 0.60 0.49 0.36 0.40 0.41 0.70 1.45 2.16 2.54 2.11 1.31 0.98
0.16 0.13 0.09 0.08 0.08 0.06 0.03 0.02 0.02 0.04 0.09 0.14 0.17 0.16 0.12 0.10 0.14 0.20 0.19 0.19 0.28 0.34 0.47 0.62 0.67 0.60 0.57 0.60 0.71 0.75 0.71 0.70 0.66 0.48 0.50 0.54 0.87 1.73 2.08 2.30 2.11 1.44 1.14
0.15 0.13 0.10 0.08 0.09 0.05 0.01 0.01 0.02 0.05 0.11 0.13 0.14 0.16 0.21 0.24 0.18 0.15 0.17 0.27 0.39 0.46 0.50 0.56 0.65 0.60 0.56 0.57 0.65 0.68 0.67 0.68 0.62 0.55 0.58 0.68 0.97 1.61 1.73 1.87 1.94 1.50 1.23
0.15 0.12 0.10 0.10 0.12 0.09 0.01 0.01 0.01 0.06 0.11 0.11 0.11 0.12 0.15 0.21 0.15 0.14 0.22 0.40 0.49 0.61 0.62 0.74 0.74 0.68 0.67 0.65 0.56 0.54 0.68 0.79 0.73 0.54 0.53 0.67 0.92 1.27 1.40 1.54 1.57 1.46 1.34
0.15 0.11 0.10 0.12 0.12 0.11 0.03 0.01 0.02 0.06 0.11 0.11 0.15 0.18 0.14 0.11 0.12 0.17 0.26 0.45 0.61 0.68 0.83 1.02 0.98 0.91 0.85 0.80 0.67 0.61 0.79 0.91 0.87 0.70 0.56 0.63 0.81 1.00 1.22 1.31 1.26 1.23 1.32